sat.trackr.live / text

‹ back to catalog

ICEYE-X60

NORAD 66753 · 2025-276CR

PAYLOAD ACTIVE UNKNOWN

§ Identity

Operator
Country
GREC
Launch date
2025-11-28
Launch site
AFWTR
Launch vehicle
Mass (kg)
RCS (m²)

External: N2YO · Heavens-Above · Gunter

§ Orbital elements

Epoch: 2026-05-25T03:21:29.532960Z

Period
95.35 min
Inclination
97.4177°
Eccentricity
0.0005097
Mean motion
15.10231534 rev/d
Perigee alt
532.0 km
Apogee alt
539.0 km
Semi-major
6,913.6 km
B*
2.1762e-4
RAAN
218.5091°
Arg perigee
110.8154°
Mean anomaly
249.3622°
Rev number
2,688

§ Raw data

ICEYE-X601 66753U 25276CR  26145.13992515  .00003497  00000+0  21762-3 0  99952 66753  97.4177 218.5091 0005097 110.8154 249.3622 15.10231534 26888

JSON: /api/v1/satellites/66753 · /tle

For live sub-satellite position, see the globe view (requires WebGL).

§ Visibility from observer

Set your observer location to see the next 7 days of passes ≥ 10°. The values pass through the URL so the page stays shareable.

No JS? Fill the form by hand. The geolocation button needs JavaScript.